Content
SEND FEEDBACK

Daily
Averages
Monthly
Summary
United States of America

MERIZO, GUAM


Home > North America > United States > Guam
Elevation: 3 meters     Latitude: 13 14N     Longitude: 144 39E

WEATHER
 
SELECT A DAY
Number of Records: 341,964;   Date Range: 1/1/95 - 7/26/14
 
SHARE

PRINT THIS DATA

[ ← Previous Day ]
WEATHER ALMANAC - 29 JUNE, 2013
[ Next Day → ]
[ °F ]   °C
We're sorry. There is no daily almanac available for Merizo, Guam on 29 June, 2013.
WEATHER BY HOUR - 29 JUNE, 2013
[ °F ]   °C
Local TimeTemperatureDewpointHumidityBarometerVisibilityWind DirectionWind SpeedGust SpeedPrecipitationEventsConditions
12:35 AM27 °C25 °C89 %1010.8 hPa16.1 kmEast (100°)16.7 km/hOvercast
12:36 AM27 °C25 °C89 %1010.8 hPa16.1 kmEast (100°)16.7 km/hOvercast
12:47 AM27 °C25 °C89 %1010.5 hPa16.1 kmEast (100°)18.5 km/hMostly Cloudy
12:49 AM27 °C25 °C89 %1010.5 hPa16.1 kmEast (90°)20.4 km/hMostly Cloudy
12:55 AM26.9 °C25.1 °C90 %1010.5 hPa16.1 kmEast (100°)18.5 km/hScattered Clouds
1:33 AM27 °C25 °C89 %1010.5 hPa16.1 kmEast (90°)16.7 km/hMostly Cloudy
1:38 AM27 °C25 °C89 %1010.2 hPa16.1 kmEast (90°)16.7 km/hMostly Cloudy
1:44 AM27 °C24 °C84 %1010.2 hPa16.1 kmEast (90°)16.7 km/hMostly Cloudy
1:50 AM27 °C24 °C84 %1010.2 hPa16.1 kmEast (100°)16.7 km/hMostly Cloudy
1:55 AM26.9 °C24.2 °C85 %1010.2 hPa16.1 kmEast (90°)20.4 km/hMostly Cloudy
2:03 AM27 °C25 °C89 %1010.2 hPa16.1 kmEast (90°)14.8 km/hMostly Cloudy
2:09 AM27 °C24 °C84 %1010.2 hPa16.1 kmEast (90°)16.7 km/hMostly Cloudy
2:10 AM27 °C24 °C84 %1010.2 hPa16.1 kmEast (90°)16.7 km/hMostly Cloudy
2:15 AM27 °C24 °C84 %1010.2 hPa16.1 kmEast (80°)16.7 km/hMostly Cloudy
2:37 AM27 °C24 °C84 %1010.2 hPa16.1 kmEast (100°)16.7 km/hScattered Clouds
2:55 AM26.8 °C24.4 °C87 %1010.2 hPa16.1 kmEast (100°)18.5 km/hPartly Cloudy
3:54 AM27 °C25 °C89 %1010.2 hPa16.1 kmEast (100°)14.8 km/hMostly Cloudy
3:55 AM26.9 °C24.6 °C87 %1010.2 hPa16.1 kmEast (100°)14.8 km/hMostly Cloudy
4:02 AM27 °C25 °C89 %1010.2 hPa16.1 kmEast (100°)16.7 km/hScattered Clouds
4:03 AM27 °C25 °C89 %1010.2 hPa16.1 kmEast (100°)16.7 km/hMostly Cloudy
4:14 AM27 °C25 °C89 %1010.5 hPa16.1 kmEast (100°)24.1 km/hMostly Cloudy
4:18 AM27 °C25 °C89 %1010.2 hPa14.5 kmEast (90°)20.4 km/hLight Drizzle
4:23 AM26 °C24 °C89 %1010.2 hPa14.5 kmEast (100°)14.8 km/hLight Drizzle
4:26 AM26 °C24 °C89 %1010.2 hPa14.5 kmEast (100°)13 km/hLight Drizzle
4:29 AM26 °C24 °C89 %1010.2 hPa16.1 kmEast (100°)11.1 km/hScattered Clouds
4:54 AM26 °C25 °C94 %1010.5 hPa16.1 kmEast (100°)14.8 km/hMostly Cloudy
4:55 AM26.3 °C24.5 °C90 %1010.2 hPa16.1 kmEast (100°)14.8 km/h0 mmMostly Cloudy
4:56 AM26 °C24 °C89 %1010.2 hPa16.1 kmESE (110°)16.7 km/hMostly Cloudy
5:02 AM26 °C24 °C89 %1010.5 hPa16.1 kmESE (110°)14.8 km/hMostly Cloudy
5:03 AM26 °C24 °C89 %1010.5 hPa16.1 kmESE (110°)14.8 km/hMostly Cloudy
5:05 AM26 °C24 °C89 %1010.5 hPa16.1 kmESE (110°)14.8 km/hMostly Cloudy
5:08 AM26 °C24 °C89 %1010.5 hPa16.1 kmEast (100°)13 km/hMostly Cloudy
5:26 AM27 °C24 °C84 %1010.5 hPa16.1 kmEast (90°)20.4 km/hMostly Cloudy
5:27 AM27 °C24 °C84 %1010.5 hPa16.1 kmEast (100°)18.5 km/hMostly Cloudy
5:29 AM27 °C24 °C84 %1010.5 hPa16.1 kmEast (100°)18.5 km/hMostly Cloudy
5:34 AM27 °C24 °C84 %1010.5 hPa16.1 kmEast (100°)18.5 km/hScattered Clouds
5:55 AM26.5 °C24 °C86 %1010.8 hPa16.1 kmEast (90°)14.8 km/hScattered Clouds
6:01 AM27 °C24 °C84 %1010.8 hPa16.1 kmEast (90°)16.7 km/hRainLight Rain
6:09 AM27 °C24 °C84 %1010.8 hPa16.1 kmEast (90°)13 km/hScattered Clouds
6:25 AM27 °C25 °C89 %1010.8 hPa14.5 kmESE (120°)22.2 km/hRainLight Rain
6:26 AM27 °C25 °C89 %1010.8 hPa12.9 kmESE (120°)22.2 km/hRainLight Rain
6:40 AM26 °C24 °C89 %1011.2 hPa16.1 kmEast (90°)13 km/hLight Drizzle
6:48 AM26 °C25 °C94 %1011.2 hPa16.1 kmEast (100°)13 km/hMostly Cloudy
6:55 AM26.5 °C24.8 °C90 %1011.2 hPa16.1 kmEast (100°)13 km/h0 mmMostly Cloudy
7:15 AM27 °C25 °C89 %1011.2 hPa16.1 kmEast (100°)18.5 km/hMostly Cloudy
7:20 AM27 °C25 °C89 %1011.2 hPa16.1 kmEast (100°)13 km/hMostly Cloudy
7:22 AM27 °C25 °C89 %1011.2 hPa16.1 kmESE (110°)13 km/hMostly Cloudy
7:25 AM27 °C25 °C89 %1011.5 hPa16.1 kmEast (100°)13 km/hMostly Cloudy
7:28 AM27 °C25 °C89 %1011.5 hPa16.1 kmEast (100°)13 km/hMostly Cloudy
7:29 AM28 °C25 °C84 %1011.5 hPa16.1 kmEast (100°)14.8 km/hScattered Clouds
7:46 AM27 °C25 °C89 %1011.5 hPa16.1 kmEast (90°)18.5 km/hMostly Cloudy
7:50 AM27 °C25 °C89 %1011.5 hPa16.1 kmEast (100°)13 km/hMostly Cloudy
7:52 AM27 °C25 °C89 %1011.5 hPa16.1 kmEast (100°)14.8 km/hMostly Cloudy
7:55 AM27.4 °C24.9 °C86 %1011.5 hPa16.1 kmEast (90°)16.7 km/hMostly Cloudy
7:59 AM27 °C25 °C89 %1011.5 hPa6.4 kmEast (80°)29.6 km/hRainLight Rain
8:00 AM27 °C24 °C84 %1011.5 hPa4 kmEast (90°)24.1 km/hRainHeavy Rain
8:01 AM27 °C24 °C84 %1011.5 hPa3.2 kmEast (100°)22.2 km/h29.6 km/hRainHeavy Rain
8:02 AM27 °C24 °C84 %1011.5 hPa2.9 kmESE (110°)22.2 km/h29.6 km/hRainLight Rain
8:09 AM27 °C25 °C89 %1011.5 hPa3.2 kmEast (100°)14.8 km/hRainLight Rain
8:10 AM27 °C25 °C89 %1011.5 hPa4.8 kmEast (100°)16.7 km/hRainLight Rain
8:11 AM27 °C25 °C89 %1011.5 hPa8 kmESE (110°)14.8 km/hRainLight Rain
8:12 AM27 °C25 °C89 %1011.5 hPa9.7 kmESE (110°)16.7 km/hRainLight Rain
8:13 AM27 °C25 °C89 %1011.5 hPa12.9 kmESE (110°)14.8 km/hScattered Clouds
8:40 AM28 °C26 °C89 %1011.5 hPa16.1 kmEast (100°)13 km/hMostly Cloudy
8:43 AM28 °C26 °C89 %1011.5 hPa16.1 kmEast (100°)13 km/hMostly Cloudy
8:55 AM28.2 °C25.9 °C87 %1011.5 hPa16.1 kmEast (90°)18.5 km/h1.78 mmMostly Cloudy
8:58 AM28 °C26 °C89 %1011.5 hPa16.1 kmEast (100°)16.7 km/hMostly Cloudy
9:02 AM28 °C26 °C89 %1011.5 hPa16.1 kmEast (80°)16.7 km/hScattered Clouds
9:03 AM28 °C26 °C89 %1011.5 hPa16.1 kmEast (90°)14.8 km/hMostly Cloudy
9:08 AM28 °C26 °C89 %1011.5 hPa16.1 kmEast (100°)14.8 km/hMostly Cloudy
9:55 AM28.7 °C25.5 °C83 %1011.5 hPa16.1 kmEast (100°)20.4 km/hMostly Cloudy
9:56 AM29 °C25 °C79 %1011.5 hPa16.1 kmEast (90°)20.4 km/hMostly Cloudy
9:59 AM29 °C25 °C79 %1011.5 hPa16.1 kmESE (110°)20.4 km/hMostly Cloudy
10:05 AM29 °C25 °C79 %1011.5 hPa16.1 kmESE (110°)18.5 km/hMostly Cloudy
10:07 AM29 °C25 °C79 %1011.5 hPa16.1 kmEast (90°)22.2 km/hMostly Cloudy
10:13 AM29 °C26 °C84 %1011.5 hPa16.1 kmESE (110°)18.5 km/hMostly Cloudy
10:19 AM29 °C26 °C84 %1011.5 hPa16.1 kmESE (110°)18.5 km/hMostly Cloudy
10:43 AM30 °C25 °C74 %1011.2 hPa16.1 kmESE (120°)18.5 km/hMostly Cloudy
10:55 AM29.7 °C25.5 °C78 %1011.2 hPa16.1 kmEast (100°)18.5 km/hMostly Cloudy
11:10 AM30 °C25 °C74 %1011.2 hPa16.1 kmEast (80°)22.2 km/hScattered Clouds
11:55 AM29.9 °C25.5 °C77 %1011.2 hPa16.1 kmEast (100°)18.5 km/hScattered Clouds
12:00 PM30 °C26 °C79 %1010.8 hPa16.1 kmEast (80°)18.5 km/hMostly Cloudy
12:05 PM30 °C26 °C79 %1011.2 hPa16.1 kmEast (80°)24.1 km/hScattered Clouds
12:08 PM30 °C25 °C74 %1011.2 hPa16.1 kmEast (90°)20.4 km/hMostly Cloudy
12:09 PM30 °C25 °C74 %1011.2 hPa16.1 kmEast (90°)20.4 km/hRainLight Rain
12:10 PM30 °C25 °C74 %1011.2 hPa16.1 kmEast (90°)20.4 km/hRainLight Rain
12:11 PM30 °C25 °C74 %1011.2 hPa16.1 kmEast (90°)18.5 km/hRainLight Rain
12:18 PM30 °C25 °C74 %1011.2 hPa16.1 kmEast (100°)20.4 km/hScattered Clouds
12:55 PM29.4 °C25.4 °C79 %1010.8 hPa16.1 kmEast (100°)20.4 km/h0 mmScattered Clouds
12:59 PM29 °C25 °C79 %1010.8 hPa16.1 kmESE (110°)16.7 km/hMostly Cloudy
1:01 PM29 °C25 °C79 %1010.8 hPa16.1 kmESE (120°)18.5 km/hScattered Clouds
1:02 PM29 °C25 °C79 %1010.8 hPa16.1 kmESE (120°)18.5 km/hMostly Cloudy
1:06 PM29 °C25 °C79 %1010.8 hPa16.1 kmESE (110°)20.4 km/hScattered Clouds
1:38 PM29 °C25 °C79 %1010.8 hPa16.1 kmESE (110°)18.5 km/hMostly Cloudy
1:55 PM28.6 °C24.9 °C80 %1010.5 hPa16.1 kmEast (100°)14.8 km/hScattered Clouds
2:55 PM29.5 °C25.5 °C79 %1010.2 hPa16.1 kmESE (110°)14.8 km/hClear
3:55 PM29.4 °C25.3 °C78 %1009.5 hPa16.1 kmEast (90°)16.7 km/hPartly Cloudy
4:02 PM30 °C26 °C79 %1009.5 hPa16.1 kmEast (80°)18.5 km/hMostly Cloudy
4:06 PM30 °C25 °C74 %1009.5 hPa16.1 kmEast (90°)20.4 km/hScattered Clouds
4:35 PM29 °C26 °C84 %1009.8 hPa6.4 kmEast (100°)13 km/h29.6 km/hRainRain
4:44 PM28 °C25 °C84 %1009.8 hPa8 kmEast (90°)14.8 km/hRainLight Rain
4:48 PM28 °C25 °C84 %1009.8 hPa16.1 kmEast (90°)18.5 km/hMostly Cloudy
4:51 PM28 °C25 °C84 %1009.8 hPa16.1 kmEast (90°)16.7 km/hScattered Clouds
4:55 PM27.8 °C25.4 °C87 %1009.8 hPa16.1 kmEast (90°)16.7 km/h0.76 mmScattered Clouds
4:57 PM28 °C26 °C89 %1010.2 hPa16.1 kmEast (80°)16.7 km/hMostly Cloudy
5:06 PM28 °C25 °C84 %1010.2 hPa16.1 kmEast (80°)22.2 km/hRainLight Rain
5:07 PM28 °C25 °C84 %1010.2 hPa12.9 kmEast (80°)25.9 km/hRainLight Rain
5:10 PM28 °C25 °C84 %1010.2 hPa9.7 kmENE (70°)20.4 km/hRainLight Rain
5:14 PM27 °C25 °C89 %1010.2 hPa6.4 kmENE (60°)20.4 km/hRainLight Rain
5:25 PM27 °C25 °C89 %1010.2 hPa16.1 kmEast (80°)20.4 km/hMostly Cloudy
5:55 PM27.4 °C25 °C87 %1010.5 hPa16.1 kmEast (80°)18.5 km/h0.25 mmClear
6:55 PM27.1 °C24.8 °C87 %1010.8 hPa16.1 kmEast (80°)14.8 km/hPartly Cloudy
7:35 PM27 °C25 °C89 %1011.2 hPa16.1 kmEast (80°)16.7 km/hMostly Cloudy
7:37 PM27 °C25 °C89 %1011.2 hPa16.1 kmEast (90°)18.5 km/hScattered Clouds
7:38 PM27 °C25 °C89 %1011.2 hPa16.1 kmEast (90°)16.7 km/hMostly Cloudy
7:47 PM27 °C25 °C89 %1011.2 hPa16.1 kmEast (80°)18.5 km/hScattered Clouds
7:55 PM27 °C24.7 °C87 %1011.5 hPa16.1 kmEast (80°)18.5 km/hScattered Clouds
8:52 PM27 °C25 °C89 %1011.9 hPa16.1 kmEast (90°)9.3 km/hMostly Cloudy
8:55 PM27 °C24.8 °C88 %1011.9 hPa16.1 kmEast (90°)9.3 km/hMostly Cloudy
9:25 PM27 °C24 °C84 %1011.9 hPa16.1 kmEast (90°)16.7 km/hScattered Clouds
9:55 PM26.8 °C24.4 °C87 %1011.9 hPa16.1 kmEast (90°)14.8 km/hScattered Clouds
10:36 PM27 °C25 °C89 %1012.2 hPa16.1 kmESE (110°)13 km/hMostly Cloudy
10:44 PM27 °C25 °C89 %1012.2 hPa16.1 kmESE (110°)9.3 km/hScattered Clouds
10:50 PM27 °C25 °C89 %1012.2 hPa16.1 kmEast (100°)9.3 km/hMostly Cloudy
10:55 PM26.8 °C24.7 °C88 %1012.2 hPa16.1 kmEast (100°)9.3 km/hMostly Cloudy
11:01 PM27 °C25 °C89 %1012.2 hPa16.1 kmEast (90°)13 km/hMostly Cloudy
11:11 PM27 °C25 °C89 %1012.2 hPa16.1 kmEast (100°)7.4 km/hMostly Cloudy
11:19 PM27 °C25 °C89 %1012.2 hPa16.1 kmEast (90°)11.1 km/hMostly Cloudy
11:55 PM26.6 °C24.6 °C89 %1011.9 hPa16.1 kmEast (90°)11.1 km/hScattered Clouds
Hourly data recorded from PGUA, located 0 kilometers away from Merizo, Guam







STORIES FROM OUR PARTNERS